KB1JDX Weather Reports


Display with metric or nautical units.
time (UTC)temp
F
wind
direction
speed
MPH
gust
MPH
rain 1hr
in
rain 24hr
in
rain mn
in
humidity
%
barometer
mb
20260903133102 67 184 0.0 0.0 0.00 0.00 0.00 100 1014.5
20260903131205 66 184 0.0 0.0 0.00 0.00 0.00 100 1014.7
20260903125206 66 184 0.0 0.0 0.00 0.00 0.00 100 1014.8
20260903123205 66 184 0.0 0.0 0.00 0.00 0.00 100 1014.9
20260903123102 66 184 0.0 0.0 0.00 0.00 0.00 100 1014.9
20260903115207 66 184 0.0 0.0 0.00 0.00 0.00 100 1015.0
20260903113205 65 184 0.0 0.0 0.00 0.00 0.00 100 1015.2
20260903113102 65 184 0.0 0.0 0.00 0.00 0.00 100 1015.2
20260903111205 65 184 0.0 0.0 0.00 0.00 0.00 100 1015.1
20260903103205 65 184 0.0 0.0 0.00 0.00 0.00 100 1014.7
20260903103102 65 184 0.0 0.0 0.00 0.00 0.00 100 1014.7
20260903101205 65 184 0.0 0.0 0.00 0.00 0.00 100 1014.7
20260903095205 65 184 0.0 0.0 0.00 0.00 0.00 100 1014.4
20260903093206 64 184 0.0 0.0 0.00 0.00 0.00 100 1014.7
20260903093102 64 184 0.0 0.0 0.00 0.00 0.00 100 1014.8
20260903091206 64 184 0.0 0.0 0.00 0.00 0.00 100 1014.9
20260903085205 64 184 0.0 0.0 0.00 0.00 0.00 100 1015.0
20260903083206 63 184 0.0 0.0 0.00 0.00 0.00 100 1015.0
20260903083102 63 184 0.0 0.0 0.00 0.00 0.00 100 1015.0
20260903081205 63 183 0.0 0.0 0.00 0.00 0.00 100 1015.2
20260903075205 63 183 0.0 0.0 0.00 0.00 0.00 100 1015.6
20260903073206 64 183 0.0 0.0 0.00 0.00 0.00 100 1015.7
20260903073102 64 183 0.0 0.0 0.00 0.00 0.00 100 1015.7
20260903071204 64 183 0.0 0.0 0.00 0.00 0.00 100 1015.8
20260903065206 64 183 0.0 0.0 0.00 0.00 0.00 100 1016.2
20260903063205 64 183 0.0 0.0 0.00 0.00 0.00 100 1016.6
20260903063102 64 183 0.0 0.0 0.00 0.00 0.00 100 1016.6
20260903061206 64 183 0.0 0.0 0.00 0.00 0.00 100 1017.3
20260903055205 64 183 0.0 0.0 0.00 0.00 0.00 100 1017.5
20260903053102 64 183 0.0 0.0 0.00 0.00 0.00 100 1017.7
20260903051205 64 183 0.0 0.0 0.00 0.00 0.00 100 1018.2
20260903045206 64 183 0.0 0.0 0.00 0.00 0.00 100 1018.4
20260903043242 64 183 0.0 0.0 0.00 0.00 0.00 100 1018.1
20260903043207 64 183 0.0 0.0 0.00 0.00 0.00 100 1018.1
20260903043103 64 183 0.0 0.0 0.00 0.00 0.00 100 1018.2
20260903041205 64 183 0.0 0.0 0.00 0.00 0.00 100 1018.3
20260903035205 64 183 0.0 0.0 0.00 0.00 0.00 100 1018.3
20260903033206 65 183 0.0 0.0 0.00 0.00 0.00 100 1018.1
20260903033102 65 183 0.0 0.0 0.00 0.00 0.00 100 1018.1
20260903031205 65 183 0.0 0.0 0.00 0.00 0.00 100 1018.5
20260903025205 65 183 0.0 0.0 0.00 0.00 0.00 100 1019.1
20260903023205 65 183 0.0 0.0 0.00 0.00 0.00 100 1019.4
20260903023102 65 183 0.0 0.0 0.00 0.00 0.00 100 1019.3
20260903021205 65 183 0.0 0.0 0.00 0.00 0.00 100 1019.5
20260903015207 66 183 0.0 0.0 0.00 0.00 0.00 100 1019.1
20260903013102 66 183 0.0 0.0 0.00 0.00 0.00 100 1019.1
20260903011205 66 183 0.0 0.0 0.00 0.00 0.00 100 1019.1
20260903005205 67 183 0.0 0.0 0.00 0.00 0.00 100 1019.3
20260903003206 67 183 0.0 0.0 0.00 0.00 0.00 100 1019.4
20260903003102 67 183 0.0 0.0 0.00 0.00 0.00 100 1019.4
20260903001205 67 183 0.0 0.0 0.00 0.00 0.00 100 1019.4
20260902235205 68 183 0.0 0.0 0.00 0.00 0.00 100 1019.6
20260902233205 69 183 0.0 0.0 0.00 0.00 0.00 11 1020.1
20260902233102 69 183 0.0 0.0 0.00 0.00 0.00 11 1020.2
20260902231205 69 183 0.0 0.0 0.00 0.00 0.00 23 1020.1
20260902225206 69 183 0.0 0.0 0.00 0.00 0.00 33 1020.3
20260902223205 70 183 0.0 0.0 0.00 0.00 0.00 44 1020.6
20260902223102 70 183 0.0 0.0 0.00 0.00 0.00 44 1020.7
20260902221205 70 183 0.0 0.0 0.00 0.00 0.00 48 1020.3
20260902215205 71 183 0.0 5.0 0.00 0.00 0.00 51 1020.1
20260902213205 71 183 0.0 5.0 0.00 0.00 0.00 52 1019.7
20260902213102 71 183 0.0 5.0 0.00 0.00 0.00 52 1019.6
20260902211205 72 178 0.0 5.0 0.00 0.00 0.00 51 1019.3
20260902205204 73 184 0.0 4.0 0.00 0.00 0.00 51 1019.5
20260902203205 73 197 0.0 4.0 0.00 0.00 0.00 51 1020.0
20260902203102 73 197 0.0 4.0 0.00 0.00 0.00 51 1020.0
20260902195205 74 205 0.0 6.0 0.00 0.00 0.00 50 1020.2
20260902193205 74 203 0.0 6.0 0.00 0.00 0.00 50 1020.1
20260902193102 74 203 0.0 6.0 0.00 0.00 0.00 50 1020.2
20260902191742 75 184 7.0 8.0 0.00 0.00 0.00 49 1020.5
20260902191205 76 182 0.0 6.0 0.00 0.00 0.00 50 1020.3
20260902185206 77 212 0.0 8.0 0.00 0.00 0.00 49 1020.5
20260902183205 76 192 0.0 8.0 0.00 0.00 0.00 49 1020.4
20260902183102 76 192 0.0 8.0 0.00 0.00 0.00 49 1020.4
20260902181205 75 184 7.0 8.0 0.00 0.00 0.00 49 1020.5
20260902175207 75 195 0.0 8.0 0.00 0.00 0.00 49 1020.5
20260902173205 75 207 0.0 8.0 0.00 0.00 0.00 48 1020.6
20260902173102 75 207 0.0 8.0 0.00 0.00 0.00 48 1020.6
20260902163207 74 160 0.0 0.0 0.00 0.00 0.00 42 1021.0
20260902163102 74 161 0.0 0.0 0.00 0.00 0.00 43 1021.1
20260902161205 73 211 0.0 0.0 0.00 0.00 0.00 39 1021.0
20260902155205 72 220 0.0 0.0 0.00 0.00 0.00 38 1021.1
20260902153205 72 176 0.0 0.0 0.00 0.00 0.00 30 1021.6
20260902153102 72 176 0.0 0.0 0.00 0.00 0.00 30 1021.6
20260902151207 71 176 0.0 0.0 0.00 0.00 0.00 30 1021.5
20260902145205 70 218 0.0 0.0 0.00 0.00 0.00 19 1021.5
20260902143102 69 345 0.0 0.0 0.00 0.00 0.00 100 1021.5
20260902141205 68 349 0.0 0.0 0.00 0.00 0.00 100 1021.3
20260902135206 67 349 0.0 0.0 0.00 0.00 0.00 100 1021.2